Lake Hood, AK

8:39 AM AKDT on October 22, 2017 (GMT -0800)
Lake Hood

Weather History for PALH - October, 2012

Change the Weather History Date:

Friday, October 5, 2012

  Actual Average Record
Temperature  
Mean Temperature 49 °F -  
Max Temperature 52 °F 45 °F 53 °F (1998)
Min Temperature 46 °F 33 °F 24 °F (1996)
Degree Days  
Heating Degree Days 16    
Moisture  
Dew Point 44 °F    
Average Humidity 87    
Maximum Humidity 93    
Minimum Humidity 77    
Precipitation  
Precipitation 0.31 in - - ()
Sea Level Pressure  
Sea Level Pressure 30.16 in    
Wind  
Wind Speed 4 mph (NNW)    
Max Wind Speed 12 mph    
Max Gust Speed 23 mph    
Visibility 6 miles    
Events Rain    
Averages and records for this station are not official NWS values.
T = Trace of Precipitation, MM = Missing Value Source: NWS Daily Summary

Daily Weather History Graph

Daily Weather History Graph

Search for Another Location

Airport or City:

Trip Planner

Search our weather history database for the weather conditions in past years. The results will help you decide how hot, cold, wet, or windy it might be!

Date:

Astronomy

Oct. 05, 2012 Rise Set
Actual Time 8:18 AM AKDT 7:16 PM AKDT
Civil Twilight 7:35 AM AKDT 7:59 PM AKDT
Nautical Twilight 6:44 AM AKDT 8:49 PM AKDT
Astronomical Twilight 5:52 AM AKDT 9:41 PM AKDT
Moon 9:22 PM AKDT (10/5) 3:00 PM AKDT (10/5)
Length of Visible Light 12h 24m
Length of Day
10h 58m
Waning Gibbous, 73% of the Moon is Illuminated
Oct 5
Waning Gibbous
Oct 7
Last Quarter
Oct 15
New
Oct 21
First Quarter
Oct 29
Full

Hourly Weather History & Observations

Time (AKDT) Temp. Windchill Dew Point Humidity Pressure Visibility Wind Dir Wind Speed Gust Speed Precip Events Conditions
12:53 AM 52.0 °F - 45.0 °F 77% 30.16 in 10.0 mi West 11.5 mph 23.0 mph N/A   Clear
1:53 AM 51.1 °F - 44.1 °F 77% 30.19 in 10.0 mi SW 11.5 mph 19.6 mph N/A   Clear
2:53 AM 51.1 °F - 44.1 °F 77% 30.19 in 10.0 mi WSW 8.1 mph - N/A   Clear
3:53 AM 48.9 °F - 44.1 °F 83% 30.20 in 10.0 mi NW 4.6 mph - N/A   Clear
4:53 AM 48.0 °F - 44.1 °F 86% 30.21 in 10.0 mi WNW 4.6 mph - N/A   Partly Cloudy
5:28 AM 46.4 °F 45.2 °F 42.8 °F 87% 30.21 in 10.0 mi NW 3.5 mph - N/A   Mostly Cloudy
5:38 AM 46.4 °F - 42.8 °F 87% 30.21 in 10.0 mi Calm Calm - N/A   Scattered Clouds
5:53 AM 46.0 °F - 43.0 °F 89% 30.22 in 10.0 mi Calm Calm - N/A   Mostly Cloudy
6:44 AM 46.4 °F - 42.8 °F 87% 30.22 in 10.0 mi Calm Calm - N/A   Scattered Clouds
6:53 AM 46.0 °F - 43.0 °F 89% 30.22 in 10.0 mi Calm Calm - N/A   Partly Cloudy
7:53 AM 46.0 °F - 43.0 °F 89% 30.23 in 10.0 mi Calm Calm - N/A   Partly Cloudy
8:53 AM 46.0 °F - 43.0 °F 89% 30.22 in 10.0 mi Calm Calm - N/A   Clear
9:27 AM 46.4 °F - 44.6 °F 93% 30.22 in 10.0 mi Calm Calm - N/A   Mostly Cloudy
9:53 AM 46.9 °F - 43.0 °F 86% 30.22 in 10.0 mi NE 3.5 mph - N/A   Mostly Cloudy
10:05 AM 46.4 °F - 44.6 °F 93% 30.22 in 10.0 mi Calm Calm - N/A   Scattered Clouds
10:53 AM 48.0 °F - 44.1 °F 86% 30.24 in 10.0 mi NW 3.5 mph - 0.00 in Rain Light Rain
11:53 AM 48.0 °F - 45.0 °F 89% 30.24 in 5.0 mi Calm Calm - 0.00 in Rain Light Rain
12:53 PM 48.9 °F - 45.0 °F 86% 30.22 in 5.0 mi Calm Calm - 0.00 in Rain Light Rain
1:53 PM 48.0 °F - 45.0 °F 89% 30.19 in 4.0 mi NNE 3.5 mph - 0.02 in Rain Light Rain
2:53 PM 48.0 °F - 44.1 °F 86% 30.17 in 4.0 mi NNE 4.6 mph - 0.01 in Rain Light Rain
3:34 PM 48.2 °F - 44.6 °F 87% 30.16 in 3.0 mi NNE 3.5 mph - 0.04 in Rain Rain
3:53 PM 48.0 °F - 45.0 °F 89% 30.15 in 3.0 mi Calm Calm - 0.07 in Rain Rain
4:01 PM 48.2 °F - 44.6 °F 87% 30.15 in 4.0 mi Calm Calm - 0.01 in Rain Rain
4:09 PM 48.2 °F - 44.6 °F 87% 30.14 in 4.0 mi NNE 3.5 mph - 0.02 in Rain Rain
4:53 PM 48.0 °F - 45.0 °F 89% 30.12 in 4.0 mi North 4.6 mph - 0.07 in Rain Rain
5:11 PM 48.2 °F - 44.6 °F 87% 30.11 in 1.0 mi Calm Calm - 0.02 in Rain Rain
5:38 PM 48.2 °F - 44.6 °F 87% 30.11 in 1.0 mi Calm Calm - 0.05 in Rain Rain
5:53 PM 48.0 °F - 45.0 °F 89% 30.11 in 1.0 mi Calm Calm - 0.07 in Rain Rain
6:07 PM 48.2 °F - 44.6 °F 87% 30.11 in 1.0 mi North 3.5 mph - 0.02 in Rain Rain
6:53 PM 48.0 °F - 45.0 °F 89% 30.11 in 1.0 mi Calm Calm - 0.05 in Rain Rain
7:10 PM 48.2 °F - 44.6 °F 87% 30.10 in 1.0 mi NNE 3.5 mph - 0.01 in Rain Rain
7:14 PM 48.2 °F - 44.6 °F 87% 30.11 in 1.0 mi NNE 3.5 mph - 0.01 in Rain Rain
7:22 PM 48.2 °F - 44.6 °F 87% 30.11 in 2.0 mi North 3.5 mph - 0.01 in Rain Rain
7:30 PM 48.2 °F - 44.6 °F 87% 30.11 in 2.0 mi WNW 3.5 mph - 0.01 in Rain Light Rain
7:53 PM 48.0 °F - 45.0 °F 89% 30.12 in 2.0 mi WNW 3.5 mph - 0.02 in Rain Light Rain
8:36 PM 48.2 °F - 44.6 °F 87% 30.11 in 9.0 mi Calm Calm - 0.00 in   Overcast
8:53 PM 48.0 °F - 45.0 °F 89% 30.12 in 7.0 mi Calm Calm - 0.00 in   Overcast
9:17 PM 48.2 °F - 44.6 °F 87% 30.11 in 6.0 mi Calm Calm - N/A   Overcast
9:53 PM 48.0 °F - 45.0 °F 89% 30.12 in 10.0 mi Calm Calm - N/A   Overcast
10:29 PM 46.4 °F - 44.6 °F 93% 30.11 in 10.0 mi Calm Calm - N/A   Overcast
10:37 PM 48.2 °F - 44.6 °F 87% 30.11 in 9.0 mi ENE 3.5 mph - N/A   Overcast
10:53 PM 48.0 °F - 45.0 °F 89% 30.12 in 10.0 mi Calm Calm - N/A   Overcast
11:53 PM 48.0 °F - 45.0 °F 89% 30.13 in 8.0 mi Calm Calm - 0.00 in Rain Light Rain